Wind_Speed
21 23 23 28 30 29 28 25 24 23 23 23 25 27 29 29 29 28 26 24 25 25 25 26 27 28 28 27 26 24 20 20 23 21 18 18 18 19 18 18 18 19 20 20 20 20 20 19 17 17 17 17 17 17 17 17 17 17 18 18 18 19 19 19 19 19 19 19 18 18 18 18 18 17 16 16 16 17 17 16 16 17 17 17 17
25 24 24 29 31 31 30 27 25 24 24 25 26 27 29 29 29 29 27 25 25 25 25 26 27 28 28 27 27 23 20 21 22 20 19 19 19 18 17 18 18 18 18 19 19 19 19 19 17 17 16 17 17 17 16 16 16 17 17 17 17 18 18 18 19 19 19 19 18 18 19 18 17 16 16 16 16 16 16 16 17 17 17 17 17
27 25 25 29 32 31 31 29 27 25 25 25 26 28 30 30 30 29 28 27 26 25 25 26 27 27 26 27 26 23 20 21 22 20 19 19 19 18 17 17 17 16 17 17 18 18 19 18 17 17 17 17 17 17 16 16 16 16 16 16 16 17 17 17 18 19 19 18 18 18 18 17 16 15 15 14 14 15 16 16 17 17 17 17 17
27 25 25 29 32 32 31 30 28 27 26 26 27 28 30 31 31 30 29 28 26 26 26 26 27 26 26 25 24 22 21 21 22 20 19 19 19 19 18 17 16 15 16 16 16 17 17 17 17 17 17 17 17 16 16 15 15 14 14 14 15 15 16 16 16 17 18 17 15 15 15 15 15 14 14 13 13 15 16 16 16 17 16 16 17
26 26 25 29 31 32 32 31 29 28 26 26 27 28 30 31 32 31 30 29 28 26 26 26 27 26 26 25 23 22 21 21 22 20 19 19 19 19 18 17 16 15 15 15 15 15 16 16 17 16 16 16 16 16 16 15 14 13 13 13 14 14 15 15 15 16 18 16 12 12 12 13 14 15 14 13 13 14 15 15 15 16 16 15 16
26 26 26 27 28 31 32 31 30 28 27 27 27 27 29 31 32 32 31 30 29 27 26 26 27 26 26 24 23 22 21 22 22 20 19 19 19 19 19 18 17 16 15 14 14 15 15 15 15 15 15 15 15 15 15 14 13 13 12 12 13 13 14 14 14 15 16 14 11 10 11 12 13 14 14 13 13 13 13 14 14 14 15 14 14
26 25 26 26 25 30 32 31 30 29 28 27 27 27 29 31 32 32 32 31 30 29 27 27 27 26 26 25 23 22 22 23 21 20 20 19 19 18 18 18 17 16 14 14 14 14 14 14 14 14 13 13 13 13 13 12 12 12 12 12 12 12 13 13 13 14 13 10 10 10 11 11 12 13 13 13 12 11 11 13 13 13 13 13 12
24 24 26 26 23 30 33 31 30 29 28 27 27 28 29 30 31 32 32 31 31 29 28 27 27 27 26 25 23 23 24 23 20 20 21 19 19 18 19 19 18 16 15 14 14 13 13 13 13 13 12 12 11 11 11 11 11 11 12 12 12 12 12 12 13 14 12 9 9 10 11 11 11 12 12 12 11 10 10 9 9 11 13 12 12
22 23 24 24 23 30 34 32 30 29 29 28 28 29 29 30 30 31 32 32 31 30 28 28 27 27 27 25 23 22 23 22 20 20 20 19 19 19 20 19 18 17 16 14 14 13 12 12 12 12 11 11 11 11 11 11 12 11 11 12 12 12 12 12 13 12 10 9 10 10 10 11 11 11 10 10 10 10 10 8 8 10 11 11 11
22 22 23 22 22 31 35 32 31 30 29 29 29 30 30 30 30 31 32 32 31 30 29 28 27 27 27 25 23 22 22 21 20 20 19 18 18 20 20 19 18 17 16 15 14 12 12 11 11 11 11 11 11 11 11 12 11 11 11 12 11 11 12 13 14 10 9 10 10 11 11 10 10 9 8 9 9 9 11 10 10 10 9 8 7
21 22 22 20 22 30 35 33 31 29 30 30 30 30 30 30 30 30 31 31 31 30 29 28 28 27 27 25 24 22 21 21 20 19 19 18 18 20 19 18 18 17 16 14 13 12 12 11 11 11 10 10 10 11 11 12 11 11 11 11 11 11 12 13 12 9 9 10 10 11 11 11 10 8 9 10 9 9 12 12 11 10 8 7 9
20 21 20 20 22 29 34 33 31 30 30 31 30 30 30 30 30 30 30 31 30 30 29 28 28 28 27 25 24 22 21 21 20 19 18 17 17 19 19 18 17 17 16 15 13 12 11 11 10 10 10 9 10 11 12 12 11 10 11 11 11 11 12 12 9 8 9 9 9 10 10 10 9 8 10 11 11 11 12 12 11 10 10 12 13
21 20 19 19 21 28 33 32 32 31 30 31 31 30 30 30 30 30 30 30 30 29 29 28 28 28 27 26 25 23 22 21 20 19 18 17 17 19 19 17 16 15 15 14 13 13 12 10 10 10 10 9 10 11 11 12 11 10 10 10 10 11 13 12 9 8 9 8 9 9 9 10 9 9 11 12 13 13 12 12 11 12 14 15 15
21 20 19 19 21 28 33 31 32 32 31 31 31 30 30 30 30 30 29 29 29 28 28 28 28 28 26 25 26 24 23 22 20 19 18 17 18 20 19 17 15 14 14 13 13 12 12 10 10 11 9 9 9 10 11 11 10 10 10 10 10 11 12 10 8 9 8 8 8 8 9 9 8 9 11 12 12 12 12 13 13 14 15 15 14
20 20 20 19 20 27 32 31 31 31 31 31 30 30 30 30 30 30 29 29 28 27 27 27 28 27 26 25 25 24 23 22 21 19 18 17 18 20 19 17 15 14 13 12 12 12 11 11 11 11 10 9 9 10 10 10 10 10 10 9 9 10 11 7 6 8 8 7 8 8 9 8 8 10 13 12 12 11 12 14 15 15 14 14 14
19 19 19 19 20 24 28 28 29 30 30 30 29 29 29 30 30 29 29 29 28 26 26 26 27 27 26 25 25 24 23 23 21 20 19 18 19 20 19 17 15 13 13 12 11 11 11 11 12 11 10 10 9 9 10 10 10 10 10 9 9 10 10 7 5 7 7 7 7 8 9 8 8 11 12 12 11 11 14 15 14 14 14 14 14
19 19 19 20 21 23 25 24 26 28 28 29 28 28 28 29 29 29 28 28 27 26 25 25 25 26 25 25 25 24 23 22 21 20 19 18 19 19 18 17 15 14 12 11 11 11 12 13 12 11 10 10 9 9 9 10 9 10 10 8 8 8 9 8 5 5 6 7 6 7 8 6 7 10 11 12 11 12 14 14 14 14 13 14 14
18 18 18 20 22 23 23 23 24 23 24 25 26 27 27 27 28 28 28 27 27 26 25 24 24 24 24 25 25 24 22 22 21 20 19 19 19 19 18 16 15 14 12 11 11 12 13 13 12 11 11 10 9 9 9 9 9 10 9 8 8 8 9 8 4 5 6 6 6 7 6 5 7 9 11 11 12 13 14 13 13 13 13 14 13
17 18 19 20 21 22 23 24 24 23 23 22 22 24 26 27 27 27 27 27 26 26 25 24 23 23 23 24 23 22 21 20 21 19 18 19 19 17 17 16 15 14 12 11 11 13 14 14 12 11 11 10 9 9 8 9 9 10 9 8 7 8 8 6 5 5 5 5 6 6 4 5 8 9 11 11 12 13 13 13 13 12 13 13 12
16 17 20 22 22 22 23 23 24 24 23 22 21 21 23 24 25 26 26 26 26 25 25 23 22 22 22 22 21 20 19 19 19 19 19 20 17 16 17 16 15 14 12 11 11 13 14 14 12 11 11 10 9 9 8 9 9 9 9 8 7 8 5 5 5 4 4 4 6 5 3 5 8 9 11 12 12 13 13 13 12 12 13 12 11
16 18 21 22 23 23 23 22 23 24 23 22 21 20 21 22 23 24 25 26 26 24 23 22 20 20 20 20 20 19 18 18 18 18 19 19 16 16 16 17 15 14 13 12 12 14 15 14 13 11 11 11 10 9 9 9 9 9 9 8 7 7 4 5 6 4 4 4 5 3 3 6 7 9 12 11 12 12 12 12 12 12 12 11 11
19 20 22 23 24 24 24 22 23 24 24 22 21 21 22 21 21 22 21 22 22 22 21 21 20 19 19 20 19 19 18 17 17 18 18 17 17 17 17 17 16 15 14 12 13 14 15 15 13 12 11 11 11 10 10 9 10 9 9 8 7 6 4 5 5 5 4 4 4 2 4 7 7 10 11 11 12 12 12 12 12 12 12 12 11
21 22 23 24 25 25 26 24 23 24 24 22 21 22 22 23 23 22 21 20 21 21 21 21 20 20 20 20 20 19 18 17 18 18 17 17 17 17 17 18 17 16 15 13 14 15 16 15 14 12 12 12 11 10 10 11 10 9 9 8 7 5 5 5 4 5 4 4 4 2 5 8 8 10 11 11 12 11 12 12 12 12 12 12 11
23 22 22 24 25 26 27 26 25 26 25 23 21 22 23 23 24 23 23 22 22 22 22 22 21 21 21 21 19 19 18 17 18 19 18 18 17 16 16 18 17 17 16 14 14 16 16 15 15 13 13 12 10 9 9 11 11 10 10 8 6 5 5 5 4 5 4 4 3 3 6 8 7 10 11 12 11 11 12 11 12 12 12 11 11
21 21 22 25 26 27 28 27 27 27 26 24 22 23 24 24 25 25 24 23 23 23 22 22 22 22 22 21 19 19 19 18 19 20 19 19 18 16 15 16 17 17 17 15 14 17 16 14 15 14 12 11 9 8 8 10 11 11 10 8 6 5 5 4 4 5 4 5 4 3 7 8 8 9 11 12 11 11 11 11 12 12 12 11 11
20 21 22 25 26 26 27 27 28 28 27 25 23 23 24 25 24 25 24 24 25 24 23 23 23 23 23 23 21 20 20 19 19 20 20 19 19 18 16 16 16 17 18 15 14 16 16 14 14 14 12 10 9 8 8 8 9 9 8 7 6 6 5 4 5 5 4 5 4 4 7 7 8 9 11 12 11 11 11 11 11 11 12 11 10
20 21 21 23 25 26 27 27 27 29 28 26 23 23 24 25 24 24 24 24 25 26 25 24 23 23 24 23 22 22 21 20 20 21 21 20 20 19 18 17 16 17 18 16 15 17 16 14 14 13 12 11 10 9 9 8 8 8 8 7 7 6 5 4 4 4 4 5 3 4 7 7 7 9 11 12 12 11 12 12 11 11 11 11 10
14 18 20 22 24 26 27 27 27 28 28 26 25 24 24 24 24 24 24 23 24 26 26 25 24 24 24 24 23 22 22 21 21 21 21 21 20 20 19 18 17 17 17 16 15 16 16 14 14 13 12 11 11 10 9 8 8 8 8 8 7 6 5 5 4 5 4 5 4 4 6 8 7 9 10 11 12 11 11 12 11 11 11 11 11
12 14 18 21 24 27 27 27 27 28 28 26 25 25 25 24 24 24 23 23 24 24 24 24 24 25 25 25 24 22 22 21 21 21 21 21 21 20 19 19 18 18 17 16 15 16 15 14 14 14 13 12 11 11 9 9 8 8 8 8 8 7 6 6 5 5 5 5 6 4 5 8 7 9 11 10 11 11 11 11 11 12 11 11 11
15 14 16 20 23 26 28 28 27 28 28 26 26 26 26 25 25 24 23 23 23 23 22 23 24 25 25 26 25 23 21 21 21 21 21 21 21 21 20 20 19 19 18 16 16 16 15 14 15 14 13 12 12 11 10 10 9 8 9 8 8 7 7 7 6 6 6 5 6 5 5 7 8 10 11 11 11 11 11 12 12 12 12 12 11
16 14 19 20 23 26 28 28 26 26 26 26 27 26 25 25 25 25 24 23 23 22 22 22 23 24 25 26 26 24 22 20 21 21 21 21 21 22 22 21 20 19 19 17 16 16 16 14 15 14 13 13 12 11 11 10 10 9 9 9 8 8 7 7 6 6 6 5 6 5 5 6 7 10 12 11 12 12 12 12 12 12 12 12 12
17 17 20 20 21 25 26 26 25 26 26 25 25 25 24 24 24 24 24 23 22 22 22 22 22 23 23 25 26 25 23 21 20 22 21 21 22 22 22 22 21 20 19 18 17 16 16 15 15 14 13 12 12 12 11 10 10 9 9 9 9 8 8 7 7 7 7 6 6 6 6 7 7 9 11 12 13 13 12 12 12 12 12 12 12
21 22 22 19 20 25 25 26 28 28 28 25 24 24 23 22 23 23 22 21 21 22 22 22 22 22 22 24 25 24 24 22 20 21 21 21 22 23 23 22 22 21 20 19 18 16 16 16 15 14 13 13 12 12 11 10 10 10 9 10 9 8 8 7 7 7 7 7 7 6 7 7 8 8 10 12 14 14 13 13 13 13 13 13 13
22 23 23 22 23 27 25 26 31 31 29 27 24 23 22 21 20 20 21 20 21 21 21 22 22 21 21 23 24 24 23 22 20 22 22 22 22 23 23 22 21 21 20 20 19 17 16 17 16 15 14 14 13 12 12 11 10 10 10 10 9 8 8 8 7 7 7 7 7 7 7 7 8 9 10 11 12 14 15 14 14 14 14 14 14
21 21 23 24 24 26 24 24 29 29 27 26 27 29 28 25 22 19 20 21 21 21 21 21 21 21 21 21 24 25 23 21 21 22 22 22 22 23 23 22 21 21 20 21 20 17 16 17 17 16 15 14 14 13 13 12 11 11 10 10 10 9 8 8 8 7 8 8 8 8 8 8 8 9 9 10 11 13 15 16 15 15 15 15 14
20 21 21 22 23 24 24 23 27 29 25 25 30 31 29 27 24 21 21 21 21 20 20 21 21 21 21 21 23 24 24 22 21 21 22 23 22 22 23 22 21 21 21 21 21 19 17 17 18 17 16 15 15 13 13 12 11 11 11 11 11 10 8 8 8 8 8 8 9 9 9 9 8 9 9 9 10 12 14 16 17 16 16 16 16
20 23 21 21 23 26 26 25 28 29 25 26 30 27 25 26 24 23 24 23 23 21 21 20 20 20 21 20 22 23 23 23 23 22 22 23 22 22 22 22 22 21 21 21 21 20 18 17 17 17 17 16 15 14 14 13 12 12 12 11 11 11 9 8 8 8 8 9 9 10 10 10 10 10 10 9 9 11 12 14 17 17 18 18 17
19 22 23 22 24 26 28 28 27 26 25 27 28 25 26 26 24 26 26 25 23 22 20 19 20 20 21 21 21 22 23 24 24 23 23 23 22 21 21 22 23 22 21 21 21 20 19 19 19 18 17 17 16 15 14 13 12 11 12 12 12 11 10 9 9 9 9 10 10 10 11 11 11 11 11 11 10 10 11 12 15 17 18 19 19
18 21 23 24 24 25 28 28 26 25 27 28 28 28 27 25 25 27 25 24 23 22 20 19 19 19 20 20 21 21 22 24 25 24 23 23 23 22 21 22 23 22 21 21 20 20 20 20 19 17 17 16 16 15 15 13 12 11 11 12 12 12 11 10 10 10 11 10 10 11 11 11 12 12 12 12 12 11 11 11 14 16 17 18 19
16 19 21 23 25 26 25 26 27 27 29 29 30 30 28 26 27 26 25 25 24 22 21 20 19 18 19 20 20 21 21 22 24 24 24 23 23 22 21 22 23 22 21 21 21 20 20 20 19 17 16 16 15 15 15 14 12 11 10 10 10 11 12 11 10 11 12 11 11 12 12 12 12 13 13 13 13 13 12 12 13 13 14 16 17
15 17 19 22 25 27 26 26 27 30 30 30 31 32 30 29 27 25 26 24 23 22 21 21 20 19 19 19 21 21 21 22 23 24 24 24 23 22 21 21 22 22 21 21 20 20 20 20 19 17 17 17 16 15 15 14 13 11 9 9 10 11 12 13 12 12 13 13 12 12 13 13 13 14 14 14 14 14 14 14 14 13 12 14 15
13 16 18 21 24 27 28 29 29 31 32 32 32 32 31 30 28 28 27 24 23 23 22 22 21 20 20 21 21 22 22 22 23 24 24 24 23 22 22 21 23 23 21 20 20 19 20 20 19 18 17 17 16 16 17 16 14 12 10 8 10 12 13 14 14 14 14 14 14 14 14 14 14 14 14 14 14 15 15 15 15 14 13 13 13
11 15 18 20 23 26 28 31 33 31 32 33 31 31 32 32 28 27 27 24 23 24 23 22 22 22 22 22 23 23 23 23 23 23 24 24 24 23 22 20 22 23 21 21 21 20 20 20 20 19 18 17 16 17 18 18 15 13 10 7 7 8 10 13 15 16 16 16 15 15 14 15 15 15 15 15 15 15 16 16 16 16 15 14 13
11 12 16 19 21 24 27 31 33 31 31 31 31 33 34 31 26 24 24 22 21 22 22 21 22 23 24 24 25 25 25 24 24 24 24 25 24 24 23 21 22 23 22 21 21 22 21 21 22 20 18 18 17 17 19 19 17 12 10 7 6 6 6 8 12 15 17 17 17 16 15 15 15 15 16 16 15 15 16 17 16 17 17 16 14
11 11 14 17 20 22 25 29 31 30 30 31 33 37 35 29 25 22 21 21 20 22 23 23 24 25 25 26 26 26 26 25 24 25 25 25 25 25 24 22 23 23 23 22 21 22 22 22 22 21 20 18 16 17 17 19 19 15 11 8 6 5 5 6 7 9 12 15 15 16 16 15 15 15 16 16 16 16 16 17 17 18 18 17 16
11 12 15 16 19 21 23 26 29 30 32 33 36 40 38 32 27 24 24 24 24 25 26 26 25 26 26 25 25 26 26 26 25 25 26 26 26 26 24 23 23 23 23 22 21 22 22 22 22 22 21 19 16 16 16 17 18 17 15 12 8 4 3 5 5 4 8 11 11 13 15 16 16 15 16 16 16 16 16 16 17 18 19 19 18
12 13 16 17 19 21 22 25 27 29 31 32 34 37 36 33 29 27 29 28 26 26 26 25 24 24 24 23 24 26 26 27 26 25 26 26 26 25 25 24 24 24 23 23 22 22 22 23 22 21 21 19 17 16 15 16 16 17 18 17 14 10 6 7 6 4 4 7 9 10 12 14 15 16 16 16 16 16 16 16 17 18 19 19 19
13 13 15 16 18 20 22 24 26 28 29 29 30 32 31 33 32 29 30 31 27 24 22 21 22 22 22 22 22 24 26 27 27 26 26 26 26 26 26 25 25 25 24 24 23 22 22 22 21 21 20 19 19 16 15 16 16 17 18 18 17 15 14 13 11 9 6 5 6 7 10 13 13 14 15 15 15 15 16 16 17 17 18 19 19
14 13 14 15 16 18 21 24 27 28 29 28 29 31 31 33 34 32 32 31 27 22 19 19 21 22 23 23 22 23 25 27 27 26 26 26 26 26 26 27 26 25 25 25 23 22 23 22 21 23 22 20 19 17 16 17 17 16 17 18 17 17 16 15 14 13 9 8 6 5 9 11 10 13 15 15 15 15 15 16 17 17 17 18 19
14 14 15 15 15 17 19 23 27 28 30 28 28 32 32 32 34 34 31 28 26 23 19 20 22 23 23 23 23 23 24 26 27 27 26 27 27 26 26 26 27 26 26 25 23 22 23 22 22 23 23 21 20 19 18 18 18 17 16 17 16 16 15 13 14 14 11 11 9 7 10 9 8 12 15 16 15 15 15 16 16 16 16 17 18
15 15 15 15 15 15 18 22 26 28 30 30 30 33 34 34 35 34 30 29 27 24 23 23 23 24 24 25 24 24 23 23 25 27 28 28 27 27 26 25 26 27 26 26 25 24 24 23 22 22 23 23 21 20 19 19 18 17 17 16 16 15 14 12 12 13 11 10 9 8 10 11 10 11 12 13 14 14 15 15 16 16 16 16 17
Wind_Direction
164 164 167 173 171 176 180 177 176 172 169 168 171 173 176 177 176 177 177 173 171 169 166 164 160 159 158 156 152 151 146 135 133 132 127 125 124 123 123 122 122 121 118 117 116 115 115 115 114 111 108 105 102 100 98 97 97 96 95 96 96 95 95 94 94 94 94 93 90 87 85 83 81 79 75 73 77 80 77 75 74 72 72 74 74
162 161 165 172 171 175 179 177 177 173 171 169 172 175 177 178 178 178 177 174 172 171 168 165 163 161 159 158 156 155 148 138 136 133 130 128 126 126 126 126 126 124 121 121 120 119 118 117 116 114 112 108 105 103 101 100 99 97 97 98 98 98 98 97 97 96 95 94 92 89 86 83 82 80 76 73 77 86 83 77 77 76 77 77 77
154 158 164 170 172 175 177 177 176 174 172 172 174 176 178 178 178 179 178 175 173 172 169 167 166 164 161 158 158 157 149 141 140 135 132 129 128 129 129 129 129 128 125 125 124 122 121 120 118 117 114 111 108 106 105 103 102 102 102 101 101 101 100 99 98 99 95 90 87 85 84 82 80 80 79 75 74 79 79 78 81 80 79 78 77
151 156 163 170 173 176 176 177 176 176 174 173 175 176 178 178 179 179 178 177 174 173 171 170 168 165 161 158 158 157 150 144 142 137 132 131 131 133 133 133 132 131 129 128 126 125 123 123 122 120 117 114 113 112 110 107 106 105 105 104 103 102 101 100 100 99 93 87 85 83 82 81 78 78 79 78 77 79 78 79 83 82 80 79 77
152 156 163 169 172 178 176 178 177 176 175 173 174 176 178 178 180 180 179 178 176 175 172 172 169 166 162 158 158 157 151 146 143 138 135 135 135 136 136 136 136 134 131 131 129 129 127 126 126 124 121 119 118 115 112 110 109 108 107 105 102 101 100 100 99 95 90 85 85 82 82 83 79 76 78 80 80 81 83 81 81 81 79 79 78
153 157 163 167 171 178 177 177 177 176 175 173 173 173 176 178 180 180 180 179 178 178 174 173 170 167 163 160 159 157 153 148 145 140 140 139 139 139 139 138 137 136 134 133 132 132 130 128 129 127 124 122 121 118 114 111 109 110 110 107 105 103 102 102 98 92 85 81 82 80 82 83 80 76 76 79 81 84 89 88 86 83 79 77 75
153 157 163 166 168 177 178 177 177 177 176 174 172 171 174 176 178 180 180 180 180 179 176 173 170 168 164 162 159 157 153 149 146 144 145 143 142 141 140 140 138 136 135 134 133 133 131 129 129 127 125 124 124 123 119 115 112 110 111 111 110 108 106 104 99 91 82 76 80 80 80 81 80 81 79 79 80 82 91 99 96 88 81 74 71
154 156 163 166 168 178 178 177 177 177 176 174 172 170 171 174 177 179 180 180 180 179 177 173 170 169 165 163 160 157 154 151 150 149 149 145 146 144 142 143 141 139 137 137 135 134 132 130 127 124 124 124 126 127 123 122 120 114 111 113 113 112 109 104 95 85 79 79 82 79 81 83 82 84 87 86 80 75 75 87 94 95 91 79 74
157 156 162 165 169 179 178 177 177 178 177 175 173 170 170 172 175 178 179 179 179 178 177 174 171 169 166 165 161 158 156 154 154 152 150 148 149 148 146 147 145 144 142 141 138 137 135 131 128 126 126 126 127 126 124 127 127 120 115 115 116 116 113 105 91 82 79 83 81 77 81 83 84 85 92 92 87 90 87 81 87 95 102 97 88
158 158 163 166 170 179 178 177 177 178 177 176 174 171 170 172 175 177 179 179 179 179 178 175 171 169 167 166 163 159 157 157 156 155 153 152 152 151 151 151 150 149 147 145 143 143 140 136 133 132 131 130 128 127 128 131 132 126 121 119 119 119 115 102 88 84 84 86 80 79 84 82 82 84 91 96 91 101 107 103 99 98 107 115 99
159 159 163 166 173 178 177 177 177 179 178 177 176 172 171 171 175 177 179 180 180 180 178 175 172 170 168 166 164 160 159 158 158 157 156 155 155 156 156 156 156 154 152 149 148 148 146 142 138 139 136 132 130 130 132 134 137 133 125 123 123 121 111 94 85 87 89 89 85 83 85 78 78 83 89 98 92 94 102 99 99 100 103 106 94
159 159 163 167 176 180 177 177 177 179 179 178 177 175 172 171 175 178 179 180 180 180 178 176 174 171 169 168 165 162 162 160 160 160 159 158 159 161 162 162 162 158 156 155 155 155 153 149 145 146 140 134 133 134 136 136 142 139 131 127 127 124 109 93 86 92 91 89 85 79 77 73 75 89 97 98 93 93 100 100 101 98 95 95 94
158 159 164 165 176 182 179 178 177 179 180 180 179 176 173 172 175 178 180 180 180 181 179 177 174 171 170 168 166 164 163 163 163 162 161 160 162 165 167 167 166 162 159 159 161 163 161 159 153 148 142 137 136 138 140 141 146 143 138 132 130 128 111 97 93 94 92 89 84 77 73 73 76 94 107 104 98 99 102 104 104 97 96 97 95
157 159 165 165 174 182 181 180 178 180 182 182 181 178 174 172 174 177 179 179 180 180 179 177 173 171 170 168 167 165 164 165 165 164 163 163 166 170 172 171 170 167 163 162 165 168 170 168 156 149 146 140 138 140 144 147 149 148 143 136 135 129 109 99 97 93 92 91 85 79 77 77 77 96 107 105 105 107 106 104 104 102 101 100 97
159 160 165 166 171 179 182 181 180 181 182 183 183 180 177 174 174 176 177 177 177 178 179 177 175 173 172 170 167 166 165 166 167 167 165 166 171 173 175 175 174 173 169 166 168 172 175 170 157 153 149 141 139 141 146 152 152 151 147 139 139 131 113 107 100 95 94 92 87 81 81 76 77 101 108 107 111 111 109 106 106 106 103 102 102
161 161 164 166 168 175 180 181 182 181 182 184 184 182 180 178 177 176 177 176 176 176 178 177 177 176 175 173 169 167 167 167 169 169 169 170 174 176 178 177 175 176 173 170 172 175 175 169 160 157 151 144 142 143 147 153 155 154 150 144 145 138 123 117 103 97 95 90 90 84 86 79 80 108 116 117 119 114 111 110 110 108 106 104 103
163 162 164 166 166 171 177 181 184 182 183 184 184 185 183 181 180 180 179 178 178 177 177 177 177 178 176 174 171 170 169 169 170 171 172 173 177 180 180 177 175 175 175 173 173 174 173 168 164 161 155 149 146 148 151 154 158 156 155 151 151 148 125 115 105 98 94 90 91 87 93 94 93 114 121 121 122 116 115 115 114 112 110 107 104
164 165 165 166 167 170 175 180 184 183 183 185 185 187 187 185 184 183 182 180 180 179 178 178 177 177 176 175 173 172 171 171 172 173 174 177 182 183 179 176 176 176 176 175 172 173 171 168 167 163 159 155 152 155 156 156 159 159 162 158 157 155 125 111 111 101 99 97 91 89 98 103 104 119 125 126 126 121 120 118 116 115 114 112 109
167 168 167 170 171 172 175 177 181 185 185 185 185 188 190 188 187 186 185 184 182 182 180 178 176 176 176 175 174 174 174 173 173 173 176 181 184 183 179 176 178 178 178 177 174 172 170 170 169 165 163 159 159 162 161 160 161 164 166 166 164 156 126 109 120 113 110 100 89 97 104 100 109 124 130 130 128 125 124 121 119 119 118 116 116
171 173 173 173 174 175 176 177 180 186 188 186 185 187 191 190 188 188 187 187 186 185 183 179 176 174 173 174 174 174 175 176 175 175 180 185 184 183 182 180 182 182 181 179 176 173 170 171 169 167 166 163 165 169 168 164 165 171 172 174 167 157 140 127 134 122 115 100 93 107 109 105 114 128 133 131 131 129 127 126 124 124 121 119 119
177 181 182 176 175 177 176 178 181 185 188 188 187 186 192 192 189 190 188 188 188 186 184 181 177 175 174 174 174 173 174 177 177 178 184 187 184 185 187 185 186 187 184 181 178 174 171 172 171 169 168 165 165 167 170 169 170 175 178 179 167 168 173 147 137 127 123 112 114 131 122 120 127 132 136 138 137 136 132 132 131 128 126 124 121
179 184 187 180 176 179 178 179 183 186 187 187 189 187 190 192 190 192 189 187 187 185 184 181 179 178 177 177 178 178 178 178 178 179 183 184 185 189 189 188 190 191 188 183 180 176 175 175 173 173 170 165 164 164 166 168 174 179 183 180 173 186 181 150 138 132 133 122 137 171 131 133 142 140 143 145 142 141 139 137 137 135 133 132 128
181 185 187 183 178 179 179 180 182 184 185 188 191 190 189 190 190 191 189 189 187 185 184 183 181 180 181 183 184 185 184 183 182 182 182 180 187 194 191 191 193 193 189 185 181 179 179 179 177 176 170 166 165 167 168 168 173 179 185 185 184 195 172 158 144 135 138 129 156 209 145 144 151 149 150 150 148 147 144 143 142 141 139 137 135
184 184 183 184 181 180 179 179 182 181 183 187 190 191 190 190 191 190 189 190 190 188 187 187 187 186 186 188 189 189 187 187 186 185 183 181 190 197 192 192 192 194 191 182 181 183 183 182 181 177 171 173 174 174 173 172 174 177 187 190 190 190 171 167 149 141 139 134 181 212 154 157 158 155 156 154 154 152 149 149 149 146 143 143 143
184 183 181 184 184 181 179 180 183 181 181 185 187 190 191 191 192 193 191 191 192 191 191 191 192 191 192 192 193 193 189 189 188 187 188 184 187 188 186 187 187 191 189 178 179 183 183 182 181 179 179 186 185 180 178 175 177 180 187 190 187 183 174 172 155 150 139 147 214 213 161 168 166 163 161 160 159 156 155 154 155 153 150 152 149
185 187 183 184 184 180 179 180 185 183 183 185 186 189 191 191 192 193 192 192 193 194 194 195 195 195 195 195 195 194 192 192 190 191 193 190 186 185 185 185 183 187 187 181 181 182 182 183 182 183 188 192 188 184 182 180 181 184 185 183 182 181 177 173 158 157 142 151 219 209 168 174 173 172 167 164 165 161 161 161 161 160 157 156 152
189 188 183 181 182 180 177 179 187 186 185 187 187 189 192 192 192 192 193 194 195 195 197 197 196 196 196 197 196 195 194 193 192 193 196 195 191 190 190 187 186 187 187 187 184 182 186 186 185 187 190 191 188 186 186 185 186 189 185 179 181 181 179 174 160 161 148 149 209 211 180 186 182 175 172 168 169 167 167 167 166 165 161 161 160
203 194 186 181 181 182 178 180 188 187 186 187 188 191 193 194 193 193 195 196 196 197 198 198 197 196 197 198 197 197 196 194 192 193 196 198 196 194 193 191 191 188 187 189 186 184 188 188 186 187 189 190 189 187 186 186 192 195 190 181 181 181 178 178 171 169 161 155 184 208 185 189 189 178 176 172 171 172 172 171 170 171 170 169 172
223 214 199 189 185 183 179 181 188 188 185 186 190 194 195 196 195 194 197 196 197 198 198 198 198 197 198 199 198 199 197 195 193 193 195 197 198 196 195 195 195 193 190 190 189 187 189 189 188 188 188 189 188 189 187 186 193 199 196 188 181 182 180 181 182 177 177 167 178 220 212 192 190 184 181 177 175 175 176 176 176 178 178 178 181
218 223 214 201 193 186 181 181 189 190 185 184 192 198 198 198 198 197 198 198 199 200 197 198 199 198 198 198 199 199 198 196 194 192 193 196 198 197 196 196 197 198 195 194 193 191 191 191 190 190 189 189 189 188 187 186 193 202 201 195 183 182 181 182 187 184 188 181 176 215 235 204 192 191 189 184 182 182 181 183 184 184 183 184 186
219 219 219 210 199 191 185 181 186 191 190 189 192 199 201 200 201 200 200 201 201 201 199 200 200 200 198 198 199 199 198 197 195 193 193 195 196 198 198 197 197 197 199 199 197 194 194 194 193 193 191 190 189 188 188 187 193 203 205 200 188 182 183 184 188 190 194 192 178 187 222 220 201 197 196 190 189 189 187 189 190 190 189 189 190
222 221 222 214 202 194 187 179 183 191 195 197 194 198 203 202 204 203 203 204 203 202 202 202 203 203 201 199 199 199 198 196 196 195 195 196 196 197 198 199 198 198 200 200 198 196 196 197 197 196 194 192 189 187 189 189 194 203 206 202 195 188 185 185 189 195 197 199 190 181 197 215 212 203 197 194 195 194 192 195 194 193 193 193 195
218 224 222 213 203 198 190 181 186 191 193 198 199 201 203 206 209 209 207 206 205 206 205 204 205 205 203 201 200 200 199 197 196 196 197 198 198 198 198 200 201 200 200 199 198 197 196 198 197 196 195 194 191 188 190 192 195 203 208 206 201 196 189 188 192 197 201 203 202 194 189 198 210 211 203 199 198 196 197 199 198 197 197 198 200
215 220 218 212 205 200 194 187 189 191 190 193 199 202 202 209 217 216 214 209 208 209 210 209 208 208 206 203 202 201 200 199 197 197 198 199 199 199 199 201 203 202 201 199 198 197 195 196 194 195 195 195 195 190 191 193 196 203 211 210 207 201 194 195 197 199 205 208 208 206 199 195 201 205 206 207 202 199 200 202 203 201 201 203 203
216 215 214 212 208 201 197 193 192 193 190 189 196 200 200 202 208 215 219 215 213 213 213 213 211 213 210 207 205 203 201 200 199 198 199 200 200 200 200 201 202 203 203 200 199 198 196 195 195 195 194 197 198 193 193 194 195 203 210 214 213 205 200 200 201 204 208 211 214 213 209 207 204 202 203 209 209 208 204 202 206 207 205 208 208
221 218 214 210 208 206 201 195 195 196 191 191 196 199 201 203 201 207 217 218 216 215 215 214 214 214 213 212 209 205 203 201 200 199 199 200 200 200 200 201 201 202 204 202 201 200 197 196 196 196 194 198 200 195 196 196 196 202 210 217 218 212 210 207 204 209 214 215 218 217 216 215 213 208 204 206 210 218 217 206 207 210 210 211 212
227 225 219 207 204 209 207 201 200 196 190 195 197 196 202 205 202 206 212 214 213 213 213 213 213 214 214 215 212 206 203 201 201 200 200 201 201 201 201 201 200 202 205 204 204 204 200 197 195 195 195 197 200 198 196 197 198 201 207 216 221 220 219 219 213 213 218 219 221 222 220 217 216 211 206 210 210 217 228 220 210 211 214 216 215
231 230 225 213 204 207 210 209 204 195 189 194 195 196 199 200 202 208 211 211 210 211 212 211 211 213 214 215 213 207 203 201 201 201 201 201 202 203 202 201 200 202 206 206 205 205 203 201 197 194 195 198 201 200 198 198 198 200 206 212 221 226 226 229 226 220 220 221 224 226 225 220 218 214 209 217 217 211 222 227 218 213 217 219 217
234 231 227 219 210 209 208 208 207 198 192 192 192 194 195 195 202 207 209 210 212 213 213 212 209 209 212 215 213 209 205 202 201 201 202 201 201 203 203 202 201 202 204 205 205 205 203 203 199 194 194 199 203 203 200 199 199 201 206 209 217 227 232 235 233 229 224 223 226 228 230 226 220 219 213 216 221 216 214 218 217 215 220 224 222
240 233 229 222 216 213 205 202 206 200 194 192 191 193 195 198 201 204 206 209 212 214 215 215 213 210 211 214 214 211 207 204 202 201 202 202 201 203 203 203 203 202 203 204 204 204 203 202 201 194 193 199 205 205 201 198 198 201 206 211 218 228 235 238 237 234 229 225 227 229 232 231 225 222 218 217 221 221 219 215 214 216 222 230 234
250 237 231 225 221 218 207 200 204 201 195 191 190 193 197 198 200 203 206 207 209 212 214 216 215 215 213 213 214 214 210 207 204 201 202 202 202 202 202 203 203 203 204 204 204 204 203 203 202 198 195 198 204 204 199 195 195 196 199 212 226 233 235 236 235 234 232 228 225 226 231 233 230 224 220 219 221 223 223 220 216 218 221 229 238
268 246 236 230 225 222 213 204 204 202 197 194 193 194 197 197 198 202 204 205 206 206 210 212 213 214 214 214 214 214 212 209 206 203 202 202 203 203 201 202 204 203 204 204 204 204 204 203 201 200 200 200 204 203 196 193 197 199 196 208 225 231 230 232 235 233 230 229 225 225 229 232 233 229 223 221 223 225 225 224 222 220 220 222 226
291 258 243 236 230 224 218 210 207 206 201 199 196 196 199 198 198 201 201 204 207 207 208 210 211 211 212 213 214 213 212 210 207 203 202 202 202 203 201 203 205 205 205 204 204 204 203 203 202 202 202 201 204 204 197 196 200 199 197 211 221 222 221 223 232 234 230 229 228 227 229 232 234 231 226 225 226 227 227 227 226 222 219 220 221
308 276 250 241 235 229 223 216 212 211 207 202 199 199 200 199 201 204 203 206 209 208 209 210 210 210 211 213 213 213 211 211 209 205 204 203 202 203 202 205 207 206 206 204 204 205 204 205 205 205 204 201 201 201 198 199 202 198 198 214 218 223 228 217 223 229 226 227 228 227 229 231 233 231 228 227 227 227 229 229 228 225 220 220 222
314 296 268 249 239 233 227 220 214 211 208 205 205 203 200 198 201 202 201 205 206 204 206 209 209 209 212 213 212 211 211 210 209 206 206 204 202 204 203 206 206 205 206 205 206 207 206 206 206 206 205 202 198 196 195 197 204 208 209 213 215 226 238 225 222 216 212 221 227 225 227 230 230 229 229 230 229 228 229 231 230 226 222 220 222
315 307 291 267 249 238 231 223 213 209 207 206 208 205 201 198 197 196 198 200 201 202 204 204 205 207 212 215 212 211 210 210 207 205 206 205 203 203 203 206 206 203 205 208 209 208 207 207 207 206 206 205 200 194 192 194 203 216 221 226 238 252 241 224 226 210 201 212 225 229 228 230 230 229 231 232 232 232 230 229 228 225 222 221 223
321 312 301 285 263 245 234 226 214 210 210 208 207 204 202 202 199 198 201 201 203 207 207 203 201 203 209 213 212 211 211 210 208 204 204 204 203 203 202 205 207 204 204 207 210 208 207 208 208 208 207 205 203 197 191 189 199 215 222 228 239 244 239 231 236 251 226 210 216 231 235 232 230 229 231 234 232 233 232 229 228 226 224 224 224
328 319 309 297 276 255 240 229 220 214 211 209 208 204 202 205 203 202 205 205 206 209 210 206 202 202 206 210 210 210 210 210 208 205 204 203 202 202 202 203 206 206 205 208 210 207 206 208 207 208 208 207 206 203 195 190 197 210 215 224 234 234 235 238 244 256 266 245 219 228 241 236 230 229 230 234 234 234 232 230 231 230 228 228 226
334 328 319 308 289 267 248 234 225 218 211 208 207 205 206 207 206 205 207 207 206 207 209 208 206 205 206 206 207 210 209 209 208 204 203 202 200 201 202 203 205 207 208 210 210 207 206 205 205 206 209 209 208 208 204 199 201 206 208 217 225 229 232 235 239 242 247 257 247 231 233 222 219 231 230 230 234 233 232 230 230 234 233 230 229
336 332 325 317 303 278 257 240 230 222 214 209 206 207 209 210 210 208 208 209 207 206 209 206 204 205 206 204 204 208 208 206 207 204 203 202 199 200 203 204 204 207 211 210 208 207 206 206 207 208 209 210 209 209 212 210 209 210 210 213 217 221 226 227 228 230 234 246 250 251 247 227 219 234 224 220 229 229 228 228 228 233 235 231 229
333 335 332 325 314 290 268 249 236 227 219 211 205 209 212 214 215 213 210 210 207 206 209 208 203 203 207 206 203 206 208 204 203 204 204 202 200 201 204 205 204 207 211 210 208 208 206 208 209 209 209 212 212 211 215 220 220 219 219 220 220 219 222 224 223 222 227 238 245 252 257 253 250 249 226 212 223 227 224 225 226 229 232 232 230
Height
789 792 795 795 798 799 802 803 805 806 808 809 810 812 813 815 817 819 821 822 823 825 826 827 828 829 831 832 833 834 835 836 837 838 839 839 840 841 842 843 843 843 843 843 844 844 844 845 845 845 845 845 845 845 845 845 845 845 845 846 846 846 846 847 847 847 847 847 848 848 848 848 849 849 849 849 849 849 849 850 850 850 849 849 849
787 791 794 795 797 799 802 803 805 806 808 809 811 813 814 816 817 819 821 822 824 825 827 828 829 830 831 833 834 835 836 837 838 839 840 840 841 842 843 844 844 845 845 845 845 845 846 846 846 846 846 846 846 846 846 846 846 846 847 847 847 847 848 848 848 848 848 848 849 849 849 849 850 850 850 850 850 850 850 850 850 851 850 851 851
786 791 794 796 797 799 801 803 804 806 808 809 811 813 814 816 817 819 821 823 824 825 827 828 829 831 832 834 835 836 837 838 839 840 841 841 842 843 844 845 845 846 846 846 846 847 847 847 847 847 848 848 848 847 847 847 847 848 848 848 848 849 849 849 849 849 850 850 850 849 850 851 851 851 852 852 851 851 851 851 851 851 851 852 851
787 791 794 795 797 799 801 802 804 805 807 809 811 813 815 816 818 819 821 823 824 826 827 828 830 831 833 834 836 837 838 839 840 841 842 842 843 844 845 846 846 847 847 847 848 848 848 848 849 849 849 849 849 849 849 849 849 849 849 849 849 850 850 850 851 851 851 851 850 851 852 852 852 852 852 853 852 852 853 852 852 852 853 853 852
788 790 794 795 798 800 801 803 804 805 807 809 811 812 815 816 818 819 821 823 824 826 827 829 830 831 833 835 837 838 839 840 840 842 843 843 844 845 846 846 847 848 848 848 849 849 849 850 850 850 850 850 850 850 850 850 850 850 850 850 851 851 851 852 852 852 852 852 852 853 853 853 853 853 853 853 853 853 854 854 854 854 854 854 854
787 790 794 796 799 800 802 803 804 806 807 809 811 813 814 816 818 819 821 823 825 826 827 829 830 832 833 835 837 838 840 840 841 842 843 844 845 845 846 847 848 848 849 849 850 850 850 850 851 851 851 851 851 851 851 851 851 851 851 852 852 852 853 853 853 853 853 853 853 854 854 854 854 854 854 854 854 854 854 855 855 855 855 855 855
787 790 794 796 799 801 802 804 806 807 808 810 811 813 814 816 818 820 821 823 825 826 828 829 831 832 834 836 837 839 840 841 842 843 844 845 846 846 847 847 848 849 850 850 851 851 851 851 852 852 852 852 852 853 853 853 853 853 853 853 853 854 854 854 854 855 854 854 855 855 855 855 856 855 855 855 855 855 855 855 856 856 856 856 856
789 791 793 797 799 800 803 805 807 808 809 811 812 814 815 817 818 820 822 823 825 826 828 829 831 833 835 837 838 839 841 842 843 844 845 846 846 847 847 848 849 849 850 851 851 852 852 852 852 853 853 854 854 854 854 854 854 854 854 854 854 855 855 855 856 855 855 856 856 856 856 856 857 856 856 856 856 856 856 856 856 857 857 857 857
790 792 794 797 799 800 803 805 807 809 810 812 812 814 815 817 818 820 822 823 825 827 829 830 831 833 835 837 838 840 841 843 844 845 846 847 847 847 848 849 849 850 851 852 852 853 853 853 853 854 854 855 855 855 855 855 855 855 855 855 855 856 856 857 856 856 857 857 857 857 857 857 858 857 857 857 857 857 857 858 858 858 858 858 858
790 792 795 797 799 800 803 805 807 809 811 812 813 814 815 817 819 820 822 823 825 827 829 830 832 833 835 837 839 840 842 843 844 846 847 848 848 848 849 849 850 851 851 852 853 853 853 854 854 855 855 855 855 855 856 856 856 856 856 856 856 857 857 857 857 857 858 858 858 858 858 858 859 858 858 858 858 858 858 858 858 858 858 858 858
790 793 795 798 799 800 803 806 808 810 812 813 814 815 815 817 819 821 822 823 825 827 829 831 832 833 835 837 839 841 842 844 845 846 847 848 849 849 849 850 851 851 852 853 853 854 854 855 855 855 856 856 856 856 856 857 857 857 857 857 857 858 858 857 857 859 859 859 859 859 859 859 859 859 858 858 858 858 859 859 859 858 858 859 859
791 793 796 798 799 801 804 806 808 811 813 814 815 815 815 817 819 821 822 824 825 828 829 831 832 833 835 837 838 840 842 844 845 846 848 849 849 850 850 850 851 852 852 853 854 854 855 855 855 856 856 857 857 857 857 857 857 857 857 858 858 858 859 858 859 860 860 860 860 860 860 860 860 859 859 859 859 859 859 859 859 859 859 860 860
791 794 797 798 799 802 805 807 809 811 814 815 816 816 816 817 819 821 823 824 826 828 830 831 833 834 835 836 838 840 842 844 845 847 848 849 850 850 851 851 851 852 853 853 854 855 856 856 856 856 857 857 857 857 858 858 858 858 858 858 858 859 859 859 860 861 860 861 861 861 861 861 860 859 859 860 860 860 860 860 860 860 860 861 861
791 793 797 798 800 802 805 808 809 811 814 816 817 818 817 818 820 822 824 825 827 828 830 832 833 834 835 837 838 840 842 843 845 847 848 849 850 851 851 852 852 853 853 854 855 855 856 856 857 857 857 858 858 858 858 858 858 858 859 859 859 860 860 860 861 861 861 861 861 862 862 862 861 860 860 860 861 861 860 860 861 861 861 862 862
791 793 796 799 800 803 805 808 810 812 814 816 818 819 819 819 820 822 824 826 827 829 831 832 834 835 836 837 839 840 841 843 845 847 848 849 850 851 852 852 852 853 853 854 855 856 856 857 857 857 858 858 858 858 859 859 859 859 859 859 860 860 860 861 862 862 862 862 862 862 862 862 861 861 861 861 861 861 861 861 862 862 862 862 863
792 794 796 798 801 804 807 809 811 812 814 817 819 820 820 820 821 822 824 826 827 829 831 833 834 835 836 838 839 841 841 843 845 846 848 849 850 851 852 852 853 854 854 855 855 856 857 857 858 858 858 858 859 859 859 859 859 860 860 860 860 860 861 862 862 862 862 862 863 863 863 862 861 862 862 862 862 861 862 862 863 863 863 863 863
792 794 796 798 801 804 807 810 812 813 814 817 819 821 822 822 822 823 824 826 827 829 831 833 834 835 836 838 840 841 842 843 844 846 848 849 850 851 852 853 853 854 854 855 855 856 857 857 858 859 859 859 859 859 859 860 860 861 861 861 861 861 861 862 863 863 863 863 863 864 863 863 862 862 862 863 862 862 863 863 864 864 864 864 864
792 795 797 799 801 804 807 810 813 815 816 817 819 821 822 823 824 824 825 826 828 829 830 832 834 835 836 838 840 841 843 843 844 846 847 849 850 851 852 853 853 853 854 855 855 856 857 858 859 859 859 859 860 860 860 860 860 861 861 861 861 862 862 862 863 864 864 864 864 864 864 863 862 863 863 863 863 863 864 864 864 864 865 865 865
792 794 796 799 801 804 807 810 813 815 817 818 819 820 822 824 825 825 826 827 828 829 831 832 834 835 836 838 840 842 843 843 844 845 847 848 850 851 852 853 853 853 854 855 855 856 857 858 859 859 860 860 860 860 860 860 861 861 861 862 862 862 862 862 863 864 864 864 864 864 864 863 863 863 863 864 864 864 864 865 865 865 865 865 866
792 794 796 798 800 803 805 809 811 814 817 818 819 820 822 823 825 826 827 828 829 830 832 833 834 836 837 838 840 842 843 844 844 846 846 848 849 850 851 852 853 853 854 855 855 856 857 858 859 860 860 860 860 861 861 861 861 861 862 862 862 862 862 863 863 864 864 864 865 864 863 863 863 864 864 865 865 865 865 866 866 866 866 866 866
792 793 795 796 798 801 804 807 810 813 815 817 818 819 821 823 825 826 828 829 829 831 832 834 835 836 837 839 841 842 843 844 845 846 846 847 849 850 851 852 853 853 854 855 855 856 857 858 859 860 860 860 861 861 861 861 861 862 862 862 862 863 863 863 863 864 864 865 865 864 863 863 864 864 865 865 865 866 866 866 866 866 867 867 867
789 792 794 794 796 799 802 806 808 811 813 816 817 819 820 822 825 826 828 829 830 831 832 834 835 836 838 839 840 842 843 843 844 846 846 847 848 849 850 851 853 853 854 854 855 856 857 858 859 859 860 860 860 861 861 861 862 862 862 862 863 863 864 863 863 864 864 865 865 864 864 864 865 865 866 866 866 866 867 867 867 867 867 867 867
786 788 791 792 794 796 800 803 806 809 812 814 816 818 819 821 824 825 826 829 830 831 832 834 835 836 837 839 840 841 842 842 843 845 846 847 848 849 850 851 852 853 854 854 855 856 857 858 858 859 860 860 860 861 861 861 861 862 862 862 863 864 863 863 863 864 864 865 865 864 864 865 865 865 866 867 867 867 867 868 867 867 867 867 868
783 785 788 791 792 794 797 801 804 806 809 812 814 816 817 819 822 823 825 827 828 830 831 833 834 835 836 838 839 839 840 841 842 844 845 847 848 848 849 850 852 853 854 854 855 855 857 858 858 859 859 859 860 861 861 861 861 861 862 862 863 863 863 863 864 864 865 866 865 864 865 865 865 866 866 867 867 867 868 868 868 868 868 868 868
782 784 786 789 791 792 794 798 802 803 806 809 811 813 815 818 819 821 823 824 826 828 830 831 832 834 835 837 838 838 839 840 841 843 845 846 847 848 849 850 851 852 853 854 855 855 856 858 858 858 859 859 860 860 860 861 861 861 862 862 862 863 863 863 864 864 865 865 865 865 865 866 866 866 866 867 867 868 868 868 868 868 868 868 868
781 783 784 786 789 791 792 796 800 801 804 807 809 811 813 815 817 819 820 822 824 826 828 830 831 832 833 835 836 837 838 838 840 841 843 845 846 847 848 849 851 852 852 854 854 855 856 857 857 858 859 859 859 859 860 860 861 861 861 862 862 862 863 863 864 864 865 865 864 865 866 866 866 866 867 867 868 868 869 869 869 868 868 868 868
779 781 782 785 787 790 791 795 799 800 802 804 807 809 811 813 815 817 818 820 822 824 826 827 829 830 832 833 834 836 836 837 838 840 842 843 844 845 847 848 849 851 851 853 853 854 855 856 856 857 857 858 858 859 859 860 860 861 861 861 862 862 863 863 864 864 865 865 865 865 866 866 866 867 867 867 868 868 869 869 869 869 869 868 868
781 781 782 784 786 788 790 793 798 799 799 802 805 807 810 812 813 815 817 818 820 822 824 825 827 828 830 832 833 834 834 835 836 838 840 841 843 844 845 847 848 849 850 851 852 852 853 854 855 856 856 857 857 858 858 859 860 860 860 861 861 862 862 863 864 864 865 865 865 865 866 866 866 867 867 868 868 868 869 869 869 869 869 869 869
782 783 784 784 785 786 788 792 796 797 798 800 803 806 808 810 811 813 815 816 818 820 822 824 825 826 828 829 831 832 833 833 834 835 838 839 841 842 843 845 846 848 849 850 850 851 852 853 854 854 855 856 856 857 857 858 859 860 860 860 861 861 862 863 863 864 865 865 865 865 865 866 866 867 868 868 868 868 869 869 869 869 869 869 869
779 783 786 786 786 786 786 789 794 797 797 799 802 805 806 807 809 811 813 815 817 818 820 822 823 824 825 827 829 830 831 831 832 834 836 837 839 841 842 843 845 846 847 848 849 850 850 851 852 853 854 855 855 856 856 857 858 859 859 860 860 861 862 862 863 864 864 865 865 865 865 866 866 867 868 868 868 868 869 869 869 869 869 869 869
777 781 784 785 785 786 785 785 790 795 797 797 799 802 804 806 807 809 811 813 815 817 818 820 821 822 823 825 827 828 829 830 831 832 834 836 837 839 840 842 843 844 845 847 847 848 849 850 851 852 853 854 854 855 856 856 857 858 859 859 860 860 861 862 862 863 864 864 865 865 865 865 866 867 867 868 868 868 869 869 869 869 869 869 869
776 778 780 783 783 784 784 783 787 793 796 797 797 800 803 805 807 808 809 811 814 815 816 818 819 821 822 823 825 826 827 828 829 830 832 834 835 837 839 840 841 842 843 845 846 846 848 849 850 851 852 853 853 854 855 855 856 857 858 858 859 859 860 861 862 863 863 864 865 865 865 865 865 866 867 867 868 868 868 868 868 868 868 868 869
775 777 779 782 782 783 784 782 785 789 792 794 797 799 802 805 807 808 809 811 812 813 815 816 817 819 821 822 823 824 825 826 827 828 831 832 834 835 837 838 840 841 842 843 844 845 846 848 849 850 851 852 852 853 854 854 855 856 857 858 858 859 860 860 861 862 863 863 864 865 865 866 866 866 866 866 867 867 868 868 868 868 868 868 868
774 777 778 779 780 781 782 782 783 787 787 789 794 799 802 805 807 809 809 810 811 812 813 814 816 818 819 821 821 822 823 824 825 827 829 831 832 834 835 837 838 840 841 841 842 843 845 846 847 849 850 850 851 852 853 853 854 855 856 857 857 858 859 860 860 861 862 863 863 864 865 865 866 866 866 866 866 866 867 867 867 867 867 867 868
772 774 774 776 778 779 780 780 782 785 786 786 790 795 798 800 803 807 809 810 810 811 812 813 815 816 818 819 820 820 821 822 823 825 827 829 831 832 833 835 837 839 840 840 841 842 843 844 845 847 848 849 850 851 851 852 853 854 855 856 856 857 858 859 859 860 861 862 863 863 864 864 864 865 866 866 865 865 865 866 866 866 867 867 867
769 770 771 773 775 777 778 778 779 782 784 784 787 793 796 797 799 803 807 809 809 809 810 811 813 814 816 817 818 818 819 820 821 823 825 826 828 830 832 833 835 837 838 839 839 840 841 842 843 845 846 848 849 849 850 851 852 853 854 855 856 856 857 857 858 859 860 861 861 862 863 863 863 864 865 865 865 865 864 864 865 865 866 866 866
765 766 768 770 772 774 776 776 777 778 781 784 787 792 796 797 797 800 804 806 807 807 807 809 810 811 813 814 816 816 816 817 819 821 823 824 826 828 830 831 833 835 836 837 838 838 839 840 842 843 844 846 847 848 849 849 850 852 853 854 854 855 856 856 857 858 858 859 860 861 861 862 863 863 864 864 864 864 863 863 863 864 864 864 865
762 763 765 767 768 771 773 774 776 777 779 783 787 791 794 796 797 800 802 803 803 804 804 805 806 808 810 812 813 814 814 815 817 819 820 822 824 826 828 829 831 833 834 835 836 837 838 839 840 841 842 844 845 846 847 848 849 850 851 852 853 854 855 855 856 856 857 858 858 859 860 860 861 862 862 862 862 863 862 862 862 862 862 863 863
760 760 762 764 766 768 770 772 775 776 778 781 785 790 793 795 797 799 800 801 801 801 801 802 803 804 807 809 811 813 813 813 815 817 818 820 822 824 826 827 829 831 832 833 835 835 836 838 838 839 840 842 843 844 845 846 847 848 849 851 852 853 853 854 854 855 855 856 857 857 858 858 859 860 860 861 861 862 862 861 861 861 861 861 861
759 759 760 762 763 765 766 769 772 774 777 780 783 788 791 792 793 795 796 796 796 797 799 800 801 802 804 806 809 811 811 812 813 815 817 818 820 822 824 826 827 829 830 831 832 833 835 836 837 837 839 840 842 842 843 844 845 847 848 849 851 851 852 852 852 853 853 854 855 855 856 856 857 858 858 859 859 860 860 861 860 860 861 859 859
757 757 758 759 760 762 763 765 769 771 773 776 779 783 785 786 787 790 790 791 792 794 796 797 799 800 802 804 806 808 810 810 812 813 815 816 818 820 822 824 825 827 828 829 830 832 833 835 836 836 837 839 840 841 842 843 844 845 847 848 849 850 850 851 851 851 851 852 852 853 854 854 855 856 856 857 857 857 858 859 859 859 859 858 857
757 756 757 757 758 759 761 763 766 768 769 771 774 776 778 778 780 782 784 786 788 789 791 793 795 797 799 801 803 806 807 808 810 811 812 814 816 818 820 822 823 825 826 828 829 831 832 833 834 835 836 837 838 839 840 840 841 842 844 846 847 848 848 848 849 849 849 849 850 851 851 852 852 853 854 855 855 855 856 856 857 857 857 857 857
757 755 755 755 756 757 759 760 762 764 766 768 769 770 771 772 775 777 779 782 784 785 787 789 791 793 795 798 800 802 804 806 807 809 810 812 814 816 818 820 821 823 824 826 827 829 830 831 832 833 834 835 836 836 837 837 838 840 842 843 843 843 845 845 845 846 846 847 847 848 849 849 850 850 851 852 852 853 853 853 854 855 854 855 855
756 754 753 754 754 755 756 757 760 761 763 765 765 766 767 770 774 776 779 780 782 783 785 786 787 789 792 794 796 798 801 803 805 806 808 809 812 814 816 818 819 821 822 824 825 827 828 829 831 831 831 832 832 833 835 835 836 837 839 840 839 840 841 840 840 841 843 844 844 845 846 846 847 848 848 849 849 850 850 850 851 852 852 852 853
756 754 753 752 752 752 754 755 757 758 760 762 762 763 765 768 772 775 778 780 780 781 782 782 783 785 788 790 792 795 797 799 801 803 805 807 809 811 813 815 817 819 820 822 823 825 826 827 829 829 830 830 829 831 833 833 834 835 835 836 837 839 838 835 836 838 839 840 841 842 843 844 844 845 846 846 846 847 848 848 848 849 850 850 851
756 754 753 751 750 750 751 753 754 755 757 758 759 760 762 765 768 771 773 775 775 775 775 776 778 781 784 787 789 791 793 796 797 799 801 803 806 808 810 812 814 816 818 820 821 822 824 825 827 827 828 828 828 829 830 831 833 834 834 834 834 835 834 833 835 836 836 837 838 839 840 841 842 842 843 843 843 844 845 845 846 846 847 847 848
755 754 752 750 749 748 749 750 751 753 754 756 757 758 760 762 764 766 768 770 770 770 770 771 773 777 781 784 786 788 790 793 794 796 798 800 803 805 807 809 811 813 815 817 819 820 821 823 825 826 826 827 827 827 827 829 831 832 833 833 833 834 834 834 834 835 836 836 836 837 837 837 838 839 840 840 841 841 842 842 843 844 844 844 844
755 753 751 749 748 747 746 747 748 750 751 753 754 755 757 759 761 763 765 765 764 765 767 769 771 774 778 781 783 786 788 790 791 793 795 797 799 801 804 806 808 811 813 815 816 817 819 821 823 824 824 825 825 825 825 827 829 830 831 832 833 833 834 834 833 834 835 834 833 834 835 835 836 836 837 837 838 838 839 840 840 841 841 841 841
755 753 751 748 747 745 744 745 745 746 747 749 751 752 754 755 757 759 760 760 759 760 764 767 770 773 775 777 780 783 785 786 788 790 792 794 795 798 800 802 805 808 810 812 813 815 816 818 820 821 822 823 823 823 823 824 826 827 829 830 831 831 832 832 833 833 833 833 832 831 832 832 834 834 834 834 835 835 836 836 837 838 838 838 838
754 753 750 748 746 744 742 742 742 743 744 745 747 749 751 752 753 754 755 755 755 758 762 765 767 770 772 774 776 780 782 783 784 786 788 790 792 794 797 799 801 804 806 808 810 812 813 815 817 819 820 821 821 822 822 822 823 824 826 827 827 828 829 829 830 830 830 831 830 828 828 827 829 830 830 831 832 832 832 833 834 834 834 834 835
754 752 750 748 746 743 741 739 739 740 741 742 743 745 748 748 748 749 750 750 752 756 759 762 764 767 769 770 773 776 779 780 781 783 784 786 788 790 793 796 798 800 803 805 807 809 811 813 815 817 818 819 820 820 821 821 822 822 823 824 825 825 825 825 826 827 828 828 827 827 825 823 824 824 825 827 828 828 829 829 830 830 831 831 831